BREEZE-M DEB (TANK)

Satellite information

Favourite Embed

Satellite Type and Status

DEBRISIN ORBIT

Key statistics

Satellite BREEZE-M DEB (TANK) at a glance.

Uptime

4956

Days in orbit

Revolutions

≈ 5.5

Per day

Orbit

MEO

Medium Earth Orbit

Inclination

50.7

Latest

Satellite identification and parameters

Extended collection of information and parameters for BREEZE-M DEB (TANK).

Object identification

Identified? True

Debris? True

Object name: BREEZE-M DEB (TANK)

International designator: 2012-011C

Object number (NORAD): 38100

Object ID (CCSDS): 38100

Country: COMMONWEALTH OF INDEPENDENT STATES (CIS)

Current information (Y/N): Y

RCS size: LARGE

Orbital parameters

Period: 262.06 minutes

Inclination: 50.7004 deg

SMA: 13565.229 km

Apoapsis: 13981.717 km

Periapsis: 392.472 km

RAAN: 49.6569 deg

Eccentricy: 0.50088519

Argument of periapsis: 45.9294 deg

Mean anomaly: 345.7406 deg

Mean motion: 5.49492865 rev/day

Mean motion (dot): 0.00000709 rev/day2

B* drag term: 0.00042856202 1/REarth

Two-line elements (TLE)

Creation date: Oct. 19, 2025, 2:20 a.m.

Reference frame: TEME

Reference center: EARTH

Epoch: Oct. 18, 2025, 3:01 p.m. UTC

TLE line 0: 0 BREEZE-M DEB (TANK)

TLE line 1: 1 38100U 12011C 25291.62599269 .00000709 00000-0 42856-3 0 9998

TLE line 2: 2 38100 50.7004 49.6569 5008852 45.9294 345.7406 5.49492865269097

Live tracking on map

Real-time ground track for satellite BREEZE-M DEB (TANK).

In-orbit conjunctions

A list of the most updated potential collisions computed for object BREEZE-M DEB (TANK).

Target Orbit TCA Probability of collision Miss distance Type
ATLAS 5 CENTAUR DEB MEO 2025-08-02 05:06:58 TBA 3177.0 (m) DEBRIS

Associated space launch

BREEZE-M DEB (TANK) was lifted into orbit during the mission ‘Proton-M / Briz-M Enhanced | Intelsat 22’, on board a Proton-M space rocket.

The launch took place on March 25, 2012, 12:10 p.m. from 200/39 (200L).

For more information about the launch, click the button.

Launch to space Proton-M / Briz-M Enhanced | Intelsat 22
Proton-M / Briz-M Enhanced | Intelsat 22

Agency: N/A

Status: Launch Successful

Launch date: March 25, 2012, 12:10 p.m. UTC

Rocket: Proton-M

Launch pad: 200/39 (200L)

Location: Baikonur Cosmodrome, Republic of Kazakhstan

...

Latest news about this satellite

There are no fresh news available about this satellite. Check back as we update our databases every day.


Newsletter sign-up

Weekly statistics, charts and insights to help you stay on top of the space industry.